Weather History for KIML - April, 2012

Change the Weather History Date:

Monday, April 16, 2012

  Actual Average Record
Temperature  
Mean Temperature 45 °F 48 °F  
Max Temperature 56 °F 62 °F 88 °F (1964)
Min Temperature 33 °F 35 °F 14 °F (1951)
Degree Days  
Heating Degree Days 20 17  
Month to date heating degree days 217 302  
Cooling Degree Days 0 0  
Month to date cooling degree days 0 0  
Year to date cooling degree days 1 0  
Moisture  
Dew Point 36 °F    
Average Humidity 71    
Maximum Humidity 92    
Minimum Humidity 50    
Precipitation  
Precipitation T in 0.08 in 0.62 in (1945)
Sea Level Pressure  
Sea Level Pressure 30.15 in    
Wind  
Wind Speed 7 mph (West)    
Max Wind Speed 22 mph    
Max Gust Speed 28 mph    
Visibility 10 miles    
Events Rain    
T = Trace of Precipitation, MM = Missing Value Source: NWS Daily Summary

Daily Weather History Graph

Daily Weather History Graph

Search for Another Location

Airport or City:

Trip Planner

Search our weather history database for the weather conditions in past years. The results will help you decide how hot, cold, wet, or windy it might be!

Date:

Astronomy

Apr. 16, 2012 Rise Set
Actual Time 6:05 AM MDT 7:27 PM MDT
Civil Twilight 5:37 AM MDT 7:55 PM MDT
Nautical Twilight 5:03 AM MDT 8:29 PM MDT
Astronomical Twilight 4:27 AM MDT 9:05 PM MDT
Moon 3:36 AM MDT (4/16) 3:23 PM MDT (4/16)
Length of Visible Light 14h 18m
Length of Day
13h 21m
Waning Crescent, 18% of the Moon is Illuminated
Apr 16
Waning Crescent
Apr 21
New
Apr 29
First Quarter
May 5
Full
May 12
Last Quarter

Hourly Weather History & Observations

Time (MDT) Temp. Windchill Dew Point Humidity Pressure Visibility Wind Dir Wind Speed Gust Speed Precip Events Conditions
12:53 AM 39.0 °F 32.3 °F 35.1 °F 86% 30.04 in 10.0 mi WNW 10.4 mph - N/A   Clear
1:53 AM 39.9 °F 33.9 °F 35.1 °F 83% 30.04 in 10.0 mi WNW 9.2 mph - N/A   Clear
2:53 AM 36.0 °F 29.6 °F 33.1 °F 89% 30.05 in 10.0 mi WNW 8.1 mph - N/A   Clear
3:53 AM 35.1 °F 27.9 °F 30.9 °F 85% 30.07 in 10.0 mi WNW 9.2 mph - N/A   Clear
4:53 AM 34.0 °F 27.2 °F 30.9 °F 89% 30.10 in 10.0 mi WNW 8.1 mph - N/A   Clear
5:53 AM 34.0 °F 27.2 °F 30.0 °F 85% 30.12 in 10.0 mi WNW 8.1 mph - N/A   Scattered Clouds
6:53 AM 36.0 °F 29.6 °F 30.9 °F 82% 30.14 in 10.0 mi NW 8.1 mph - N/A   Scattered Clouds
7:53 AM 39.0 °F 35.7 °F 33.1 °F 79% 30.17 in 10.0 mi NNW 4.6 mph - N/A   Overcast
8:53 AM 42.1 °F 37.7 °F 33.1 °F 70% 30.18 in 10.0 mi North 6.9 mph - N/A   Overcast
9:53 AM 46.0 °F 41.4 °F 34.0 °F 63% 30.20 in 10.0 mi North 9.2 mph - N/A   Scattered Clouds
10:53 AM 44.1 °F 38.6 °F 36.0 °F 73% 30.23 in 10.0 mi North 10.4 mph - 0.00 in Rain Light Rain
11:53 AM 44.6 °F 43.1 °F 35.6 °F 71% 30.20 in 10.0 mi Variable 3.5 mph - N/A   Overcast
12:53 PM 48.0 °F - 37.0 °F 66% 30.21 in 10.0 mi South 4.6 mph - N/A   Mostly Cloudy
1:28 PM 48.2 °F - 37.4 °F 66% 30.17 in 10.0 mi Calm Calm - N/A   Overcast
1:53 PM 48.9 °F - 37.0 °F 64% 30.19 in 10.0 mi Calm Calm - N/A   Mostly Cloudy
2:53 PM 52.0 °F - 37.0 °F 57% 30.17 in 10.0 mi Calm Calm - N/A   Mostly Cloudy
3:53 PM 55.0 °F - 37.0 °F 51% 30.16 in 10.0 mi Calm Calm - N/A   Clear
4:53 PM 54.0 °F - 36.0 °F 51% 30.18 in 10.0 mi WNW 3.5 mph - N/A   Mostly Cloudy
5:53 PM 52.0 °F - 41.0 °F 66% 30.17 in 10.0 mi SSE 6.9 mph - 0.00 in   Scattered Clouds
6:53 PM 50.0 °F - 42.1 °F 74% 30.17 in 10.0 mi ESE 5.8 mph - N/A   Clear
7:53 PM 46.0 °F 41.9 °F 39.9 °F 79% 30.17 in 10.0 mi SSE 8.1 mph - N/A   Clear
8:53 PM 44.1 °F 39.0 °F 39.9 °F 85% 30.19 in 10.0 mi SSE 9.2 mph - N/A   Clear
9:53 PM 43.0 °F 38.2 °F 39.0 °F 86% 30.18 in 10.0 mi South 8.1 mph - N/A   Clear
10:53 PM 44.1 °F 38.6 °F 39.9 °F 85% 30.18 in 10.0 mi South 10.4 mph - N/A   Clear
11:53 PM 42.1 °F 36.6 °F 39.0 °F 89% 30.19 in 10.0 mi South 9.2 mph - N/A   Scattered Clouds